Weather History for Big Delta, AK

Change the Weather History Date:

Friday, May 3, 2013

  Actual Average Record
Temperature  
Mean Temperature 36 °F -  
Max Temperature 48 °F 47 °F 71 °F (2014)
Min Temperature 23 °F 29 °F 16 °F (2001)
Degree Days  
Heating Degree Days 30    
Moisture  
Dew Point 27 °F    
Average Humidity 83    
Maximum Humidity 100    
Minimum Humidity 46    
Precipitation  
Precipitation 0.00 in - - ()
Sea Level Pressure  
Sea Level Pressure 29.87 in    
Wind  
Wind Speed 4 mph (NW)    
Max Wind Speed 20 mph    
Max Gust Speed 26 mph    
Visibility 7 miles    
Events Fog , Snow    
Averages and records for this station are not official NWS values.
T = Trace of Precipitation, MM = Missing Value Source: NWS Daily Summary

Daily Weather History Graph

Daily Weather History Graph

Search for Another Location

Airport:

Trip Planner

Search our weather history database for the weather conditions in past years. The results will help you decide how hot, cold, wet, or windy it might be!

Date:

Astronomy

May. 03, 2013 Rise Set
Actual Time 5:07 AM AKDT 10:13 PM AKDT
Civil Twilight 3:56 AM AKDT 11:27 PM AKDT
Nautical Twilight 2:12 AM AKDT 1:07 AM AKDT
Astronomical Twilight Sun does not rise Sun does not rise
Moon 3:50 AM AKDT (5/3) 2:13 PM AKDT (5/3)
Length of Visible Light 19h 30m
Length of Day
17h 06m
Waning Crescent, 35% of the Moon is Illuminated
May 3
Waning Crescent
May 9
New
May 17
First Quarter
May 24
Full
May 31
Last Quarter

Hourly Weather History & Observations

Time (AKDT) Temp. Windchill Dew Point Humidity Pressure Visibility Wind Dir Wind Speed Gust Speed Precip Events Conditions
12:31 AM 30.2 °F 26.7 °F 28.4 °F 93% 29.87 in 10.0 mi ENE 3.5 mph - N/A   Overcast
12:53 AM 30.0 °F - 27.0 °F 88% 29.95 in 10.0 mi Calm Calm - N/A   Overcast
1:26 AM 30.2 °F - 28.4 °F 93% 29.87 in 10.0 mi Calm Calm - N/A   Overcast
1:53 AM 28.9 °F - 27.0 °F 92% 29.94 in 10.0 mi Calm Calm - N/A   Mostly Cloudy
2:07 AM 28.4 °F 23.3 °F 26.6 °F 93% 29.87 in 10.0 mi ENE 4.6 mph - N/A   Mostly Cloudy
2:24 AM 28.4 °F - 26.6 °F 93% 29.87 in 10.0 mi Calm Calm - N/A   Overcast
2:49 AM 28.4 °F - 26.6 °F 93% 29.87 in 10.0 mi Calm Calm - N/A   Overcast
2:53 AM 28.9 °F - 27.0 °F 92% 29.94 in 10.0 mi Calm Calm - N/A   Mostly Cloudy
3:53 AM 28.0 °F - 26.1 °F 92% 29.92 in 10.0 mi Calm Calm - N/A   Partly Cloudy
4:11 AM 26.6 °F - 26.6 °F 100% 29.84 in 4.0 mi Calm Calm - N/A   Mostly Cloudy
4:15 AM 26.6 °F 22.6 °F 26.6 °F 100% 29.84 in 1.8 mi NNW 3.5 mph - N/A   Mostly Cloudy
4:28 AM 26.6 °F - 26.6 °F 100% 29.84 in 3.0 mi Calm Calm - N/A   Overcast
4:50 AM 26.6 °F 21.2 °F 26.6 °F 100% 29.83 in 1.8 mi NE 4.6 mph - N/A   Overcast
4:53 AM 28.0 °F 24.2 °F 26.1 °F 92% 29.91 in 1.0 mi NNE 3.5 mph - N/A   Overcast
4:56 AM 28.4 °F 23.3 °F 26.6 °F 93% 29.83 in 0.5 mi NNE 4.6 mph - N/A Fog Light Freezing Fog
5:32 AM 28.4 °F 24.6 °F 26.6 °F 93% 29.83 in 1.0 mi NNE 3.5 mph - N/A   Mist
5:53 AM 28.0 °F 24.2 °F 27.0 °F 96% 29.90 in 1.5 mi ENE 3.5 mph - N/A   Overcast
6:04 AM 28.4 °F 24.6 °F 26.6 °F 93% 29.82 in 3.0 mi ENE 3.5 mph - N/A   Overcast
6:17 AM 28.4 °F - 26.6 °F 93% 29.83 in 1.8 mi Calm Calm - N/A   Overcast
6:22 AM 28.4 °F - 26.6 °F 93% 29.83 in 0.5 mi Calm Calm - N/A Fog Light Freezing Fog
6:35 AM 28.4 °F - 26.6 °F 93% 29.83 in 0.2 mi Calm Calm - N/A Fog Light Freezing Fog
6:53 AM 28.0 °F - 26.1 °F 92% 29.90 in 0.5 mi Calm Calm - N/A Fog Light Freezing Fog
7:01 AM 28.4 °F - 26.6 °F 93% 29.82 in 1.0 mi Calm Calm - N/A   Mostly Cloudy
7:07 AM 28.4 °F - 26.6 °F 93% 29.82 in 0.5 mi Calm Calm - N/A Fog Light Freezing Fog
7:53 AM 28.0 °F - 27.0 °F 96% 29.89 in 0.2 mi Calm Calm - N/A Fog Light Freezing Fog
8:02 AM 28.4 °F - 28.4 °F 100% 29.81 in 1.0 mi Calm Calm - N/A   Mist
8:42 AM 30.2 °F - 28.4 °F 93% 29.81 in 10.0 mi Calm Calm - N/A   Mostly Cloudy
8:53 AM 30.9 °F - 28.9 °F 92% 29.88 in 10.0 mi Calm Calm - N/A   Mostly Cloudy
9:53 AM 35.1 °F - 28.9 °F 78% 29.86 in 10.0 mi Calm Calm - N/A   Mostly Cloudy
10:53 AM 42.1 °F - 30.0 °F 62% 29.84 in 10.0 mi Calm Calm - N/A   Mostly Cloudy
11:53 AM 43.0 °F - 28.9 °F 58% 29.83 in 10.0 mi Calm Calm - N/A   Scattered Clouds
12:53 PM 48.0 °F - 28.0 °F 46% 29.81 in 10.0 mi South 10.4 mph - N/A   Scattered Clouds
1:53 PM 48.0 °F - 28.0 °F 46% 29.81 in 10.0 mi SSW 19.6 mph 26.5 mph N/A   Mostly Cloudy
2:53 PM 46.9 °F - 30.0 °F 52% 29.83 in 10.0 mi SSW 17.3 mph 24.2 mph N/A   Overcast
3:53 PM 45.0 °F 38.2 °F 30.9 °F 58% 29.83 in 10.0 mi WSW 15.0 mph - N/A   Overcast
4:53 PM 44.1 °F 37.4 °F 30.9 °F 60% 29.84 in 10.0 mi WSW 13.8 mph 19.6 mph N/A   Overcast
5:53 PM 42.1 °F 35.7 °F 28.9 °F 60% 29.85 in 10.0 mi NW 11.5 mph - N/A   Overcast
6:53 PM 37.9 °F 30.5 °F 28.9 °F 70% 29.86 in 10.0 mi NW 11.5 mph - N/A   Overcast
7:53 PM 36.0 °F 27.5 °F 28.0 °F 73% 29.89 in 10.0 mi WNW 12.7 mph - N/A   Overcast
8:53 PM 34.0 °F 26.6 °F 26.1 °F 73% 29.90 in 10.0 mi NW 9.2 mph - N/A   Overcast
9:25 PM 32.0 °F 24.2 °F 26.6 °F 80% 29.84 in 10.0 mi WNW 9.2 mph - N/A   Overcast
9:53 PM 30.9 °F 21.7 °F 26.1 °F 82% 29.93 in 10.0 mi West 11.5 mph - N/A   Overcast
10:25 PM 28.4 °F 18.0 °F 24.8 °F 86% 29.88 in 10.0 mi NW 12.7 mph - N/A   Overcast
10:36 PM 28.4 °F 18.5 °F 23.0 °F 80% 29.88 in 10.0 mi NW 11.5 mph - N/A   Overcast
10:53 PM 28.9 °F 20.4 °F 23.0 °F 78% 29.95 in 10.0 mi WNW 9.2 mph - N/A   Overcast
11:50 PM 26.6 °F 15.2 °F 21.2 °F 80% 29.91 in 4.0 mi NW 13.8 mph - 0.00 in Snow Light Snow
11:53 PM 26.1 °F 14.5 °F 21.9 °F 84% 29.98 in 4.0 mi NW 13.8 mph - 0.00 in Snow Light Snow